User: anonymous   Login
Location: Pilipovskiye Korichintsy
(49.1833°N, 27.4667°E)
Time: 17:46:02
(UTC+00:00)
Language:

SL-16 R/B - Orbit

View from above orbital plane
View from above orbital plane
View from above satellite
View from above satellite

Ground track
Ground track

The orbit data is extracted from the following two-line orbital elements,

1 27006U 01056F   20271.40343225 -.00000048  00000-0 -40893-5 0  9995
2 27006  99.4881  41.4237 0015434  77.8518 350.3575 13.70964615940687
Epoch (UTC): 27 September 2020 09:40:56
Eccentricity: 0.0015434
inclination: 99.4881°
perigee height: 985 km
apogee height: 1007 km
right ascension of ascending node: 41.4237°
argument of perigee: 77.8518°
revolutions per day: 13.70964615
mean anomaly at epoch: 350.3575°
orbit number at epoch: 94068

The dashed part of the orbit path shows where the satellite is in the earth's shadow,  

DLR